• Em Portugal
  • Lista de países
  • Para 7 dias
  • Temperatura da água
  • Mapas de satélite
  • Mapa do tempo
  • Widgets de tempo
  • user-avatar
    Iniciar Sessão

    Previsão horária em Keetmanshoop

    Hoje, 20 Junho, Quarta-feira

    Tempo Temperatura Precipitação Vento Pressão Humidade
    00:00 +14°C° 0 mm 2 m/s 680 mmHg 60%
    01:00 +13°C° 0 mm 1 m/s 680 mmHg 65%
    02:00 +13°C° 0 mm 1 m/s 680 mmHg 68%
    03:00 +12°C° 0 mm 2 m/s 680 mmHg 71%
    04:00 +12°C° 0 mm 2 m/s 680 mmHg 73%
    05:00 +10°C° 0 mm 2 m/s 680 mmHg 75%
    06:00 +10°C° 0 mm 2 m/s 680 mmHg 76%
    07:00 +10°C° 0 mm 2 m/s 680 mmHg 76%
    08:00 +12°C° 0 mm 3 m/s 681 mmHg 66%
    09:00 +14°C° 0 mm 3 m/s 681 mmHg 56%
    10:00 +17°C° 0 mm 3 m/s 681 mmHg 47%
    11:00 +18°C° 0 mm 3 m/s 681 mmHg 39%
    12:00 +20°C° 0 mm 3 m/s 681 mmHg 32%
    13:00 +21°C° 0 mm 2 m/s 681 mmHg 25%
    14:00 +23°C° 0 mm 2 m/s 681 mmHg 23%
    15:00 +23°C° 0 mm 2 m/s 680 mmHg 20%
    16:00 +24°C° 0 mm 2 m/s 680 mmHg 18%
    17:00 +22°C° 0 mm 1 m/s 680 mmHg 20%
    18:00 +21°C° 0 mm 1 m/s 680 mmHg 22%
    19:00 +19°C° 0 mm 1 m/s 680 mmHg 24%
    20:00 +18°C° 0 mm 1 m/s 680 mmHg 25%
    21:00 +18°C° 0 mm 1 m/s 680 mmHg 26%
    22:00 +15°C° 0 mm 0 m/s 680 mmHg 28%
    23:00 +14°C° 0 mm 0 m/s 680 mmHg 28%

    Amanhã, 21 Junho, Quinta-feira

    Tempo Temperatura Precipitação Vento Pressão Humidade
    00:00 +14°C° 0 mm 0 m/s 680 mmHg 29%
    01:00 +13°C° 0 mm 0 m/s 680 mmHg 30%
    02:00 +14°C° 0 mm 1 m/s 680 mmHg 31%
    03:00 +13°C° 0 mm 1 m/s 680 mmHg 32%
    04:00 +13°C° 0 mm 1 m/s 680 mmHg 33%
    05:00 +13°C° 0 mm 1 m/s 680 mmHg 34%
    06:00 +11°C° 0 mm 0 m/s 680 mmHg 35%
    07:00 +11°C° 0 mm 0 m/s 680 mmHg 36%
    08:00 +15°C° 0 mm 1 m/s 681 mmHg 30%
    09:00 +19°C° 0 mm 1 m/s 682 mmHg 25%
    10:00 +22°C° 0 mm 1 m/s 683 mmHg 20%
    11:00 +23°C° 0 mm 1 m/s 683 mmHg 18%
    12:00 +24°C° 0 mm 2 m/s 683 mmHg 16%
    13:00 +25°C° 0 mm 2 m/s 683 mmHg 13%
    14:00 +25°C° 0 mm 2 m/s 683 mmHg 13%
    15:00 +25°C° 0 mm 2 m/s 683 mmHg 13%
    16:00 +25°C° 0 mm 3 m/s 683 mmHg 12%
    17:00 +22°C° 0 mm 3 m/s 683 mmHg 15%
    18:00 +21°C° 0 mm 3 m/s 683 mmHg 17%
    19:00 +19°C° 0 mm 3 m/s 683 mmHg 20%
    20:00 +18°C° 0 mm 3 m/s 683 mmHg 22%
    21:00 +17°C° 0 mm 3 m/s 683 mmHg 24%
    22:00 +17°C° 0 mm 2 m/s 683 mmHg 26%
    23:00 +16°C° 0 mm 2 m/s 683 mmHg 28%

    Depois de amanhã, 22 Junho, Sexta-feira

    Tempo Temperatura Precipitação Vento Pressão Humidade
    00:00 +15°C° 0 mm 2 m/s 683 mmHg 30%
    01:00 +14°C° 0 mm 1 m/s 683 mmHg 32%
    02:00 +13°C° 0 mm 1 m/s 683 mmHg 34%
    03:00 +13°C° 0 mm 1 m/s 682 mmHg 36%
    04:00 +11°C° 0 mm 0 m/s 682 mmHg 38%
    05:00 +12°C° 0 mm 1 m/s 682 mmHg 38%
    06:00 +12°C° 0 mm 1 m/s 683 mmHg 38%
    07:00 +12°C° 0 mm 1 m/s 683 mmHg 38%
    08:00 +14°C° 0 mm 2 m/s 684 mmHg 33%
    09:00 +17°C° 0 mm 2 m/s 684 mmHg 28%
    10:00 +19°C° 0 mm 3 m/s 685 mmHg 22%
    11:00 +20°C° 0 mm 3 m/s 684 mmHg 20%
    12:00 +22°C° 0 mm 3 m/s 684 mmHg 18%
    13:00 +24°C° 0 mm 3 m/s 684 mmHg 16%
    14:00 +24°C° 0 mm 3 m/s 683 mmHg 16%
    15:00 +25°C° 0 mm 3 m/s 683 mmHg 15%
    16:00 +25°C° 0 mm 3 m/s 682 mmHg 15%
    17:00 +23°C° 0 mm 2 m/s 682 mmHg 17%
    18:00 +21°C° 0 mm 2 m/s 682 mmHg 20%
    19:00 +20°C° 0 mm 1 m/s 682 mmHg 22%
    20:00 +19°C° 0 mm 1 m/s 682 mmHg 23%
    21:00 +19°C° 0 mm 1 m/s 682 mmHg 23%
    22:00 +18°C° 0 mm 1 m/s 682 mmHg 24%
    23:00 +18°C° 0 mm 1 m/s 682 mmHg 25%

    23 Junho, Sábado

    Tempo Temperatura Precipitação Vento Pressão Humidade
    00:00 +16°C° 0 mm 1 m/s 682 mmHg 25%
    01:00 +16°C° 0 mm 2 m/s 681 mmHg 26%
    02:00 +16°C° 0 mm 2 m/s 681 mmHg 26%
    03:00 +15°C° 0 mm 2 m/s 681 mmHg 26%
    04:00 +15°C° 0 mm 2 m/s 681 mmHg 27%
    05:00 +15°C° 0 mm 2 m/s 681 mmHg 27%
    06:00 +14°C° 0 mm 2 m/s 681 mmHg 28%
    07:00 +14°C° 0 mm 2 m/s 681 mmHg 28%
    08:00 +16°C° 0 mm 1 m/s 682 mmHg 25%
    09:00 +20°C° 0 mm 1 m/s 682 mmHg 21%
    10:00 +22°C° 0 mm 1 m/s 683 mmHg 17%
    11:00 +24°C° 0 mm 1 m/s 683 mmHg 16%
    12:00 +25°C° 0 mm 1 m/s 682 mmHg 15%
    13:00 +26°C° 0 mm 1 m/s 682 mmHg 14%
    14:00 +26°C° 0 mm 1 m/s 682 mmHg 14%
    15:00 +26°C° 0 mm 2 m/s 681 mmHg 14%
    16:00 +26°C° 0 mm 2 m/s 681 mmHg 13%
    17:00 +25°C° 0 mm 2 m/s 681 mmHg 15%
    18:00 +23°C° 0 mm 2 m/s 681 mmHg 17%
    19:00 +20°C° 0 mm 2 m/s 681 mmHg 19%
    20:00 +19°C° 0 mm 2 m/s 681 mmHg 20%
    21:00 +19°C° 0 mm 2 m/s 681 mmHg 22%
    22:00 +18°C° 0 mm 2 m/s 681 mmHg 23%
    23:00 +17°C° 0 mm 2 m/s 681 mmHg 25%

    24 Junho, Domingo

    Tempo Temperatura Precipitação Vento Pressão Humidade
    00:00 +16°C° 0 mm 1 m/s 681 mmHg 27%
    01:00 +15°C° 0 mm 1 m/s 680 mmHg 28%
    02:00 +15°C° 0 mm 1 m/s 680 mmHg 29%
    03:00 +14°C° 0 mm 1 m/s 680 mmHg 30%
    04:00 +14°C° 0 mm 2 m/s 680 mmHg 31%
    05:00 +13°C° 0 mm 2 m/s 680 mmHg 31%
    06:00 +13°C° 0 mm 2 m/s 680 mmHg 31%
    07:00 +13°C° 0 mm 2 m/s 680 mmHg 31%
    08:00 +16°C° 0 mm 3 m/s 681 mmHg 27%
    09:00 +18°C° 0 mm 3 m/s 681 mmHg 23%
    10:00 +21°C° 0 mm 3 m/s 682 mmHg 19%
    11:00 +23°C° 0 mm 4 m/s 682 mmHg 17%
    12:00 +25°C° 0 mm 5 m/s 681 mmHg 15%
    13:00 +27°C° 0 mm 5 m/s 681 mmHg 13%
    14:00 +28°C° 0 mm 5 m/s 681 mmHg 13%
    15:00 +28°C° 0 mm 5 m/s 680 mmHg 13%
    16:00 +28°C° 0 mm 4 m/s 680 mmHg 12%
    17:00 +26°C° 0 mm 4 m/s 680 mmHg 14%
    18:00 +25°C° 0 mm 4 m/s 680 mmHg 15%
    19:00 +22°C° 0 mm 3 m/s 680 mmHg 17%
    20:00 +21°C° 0 mm 3 m/s 680 mmHg 18%
    21:00 +20°C° 0 mm 3 m/s 680 mmHg 19%
    22:00 +19°C° 0 mm 3 m/s 680 mmHg 20%
    23:00 +19°C° 0 mm 3 m/s 679 mmHg 21%

    25 Junho, Segunda-feira

    Tempo Temperatura Precipitação Vento Pressão Humidade
    00:00 +18°C° 0 mm 3 m/s 679 mmHg 21%
    01:00 +18°C° 0 mm 3 m/s 679 mmHg 22%
    02:00 +17°C° 0 mm 3 m/s 678 mmHg 22%
    03:00 +17°C° 0 mm 3 m/s 678 mmHg 23%
    04:00 +15°C° 0 mm 4 m/s 678 mmHg 23%
    05:00 +15°C° 0 mm 4 m/s 678 mmHg 24%
    06:00 +15°C° 0 mm 4 m/s 678 mmHg 24%
    07:00 +14°C° 0 mm 4 m/s 678 mmHg 25%
    08:00 +18°C° 0 mm 4 m/s 679 mmHg 22%
    09:00 +20°C° 0 mm 5 m/s 679 mmHg 19%
    10:00 +23°C° 0 mm 5 m/s 680 mmHg 16%
    11:00 +25°C° 0 mm 5 m/s 680 mmHg 15%
    12:00 +26°C° 0 mm 6 m/s 680 mmHg 15%
    13:00 +27°C° 0 mm 6 m/s 679 mmHg 14%
    14:00 +27°C° 0 mm 6 m/s 679 mmHg 14%
    15:00 +26°C° 0 mm 7 m/s 679 mmHg 15%
    16:00 +24°C° 0 mm 7 m/s 679 mmHg 16%
    17:00 +22°C° 0 mm 6 m/s 680 mmHg 19%
    18:00 +20°C° 0 mm 6 m/s 680 mmHg 22%
    19:00 +19°C° 0 mm 5 m/s 680 mmHg 26%
    20:00 +16°C° 0 mm 5 m/s 681 mmHg 29%
    21:00 +15°C° 0 mm 5 m/s 681 mmHg 32%
    22:00 +14°C° 0 mm 5 m/s 681 mmHg 35%
    23:00 +13°C° 0 mm 4 m/s 681 mmHg 40%
    Mostrar mais